www.pogodaiklimat.ru

ПОГОДА в Флинте, MI

  • Прогноз погоды в Флинте
  • Монитор погоды в Флинте
  • Климат в Флинте

АРХИВ ПОГОДЫ в Флинте

Время (UTC), дата Ветер
(напр.,м/с)
 
Видим.   Явления Облачность Т
(С)
Тd
(С)
f
(%)
Тe
(С)
Тes
(С)
Комфортность

P
(гПа)

Po
(гПа)
Тmin
(С)
Tmax
(С)
R
(мм)
SD
(см)
06:53 24.06 ЮВ  16 км    5/0 2100 м
[средняя] 
+17.2  +15.0  87  +17  +17    1006.5  978.9         
07:53 24.06 В  16 км    10/8 1950 м
[средняя] 
+17.8  +15.6  87  +18  +18    1005.5  977.9      1.8   
08:46 24.06 ЮВ  16 км  слабый дождь  10/10 720 м  +17.8  +15.6  87  +18  +18      977.9         
08:53 24.06 нст  11 км  слабый дождь  10/10 720 м  +17.8  +15.6  87  +19  +19    1005.7  977.9         
09:53 24.06 ЮВ  16 км    10/10 570 м  +18.3  +16.1  87  +19  +19    1005.5  977.9         
10:53 24.06 Ю  16 км    10/10 480 м  +18.9  +16.7  87  +20  +20    1005.6  977.9  +17.2  +18.9  2.3   
11:16 24.06 Ю  16 км    10/10 420 м  +20.0  +17.2  84  +23  +23  комфорт    977.6         
11:53 24.06 Ю  16 км    10/10 300 м  +20.6  +18.3  87  +25  +25  комфорт  1005.1  977.6         
12:02 24.06 Ю  16 км    10/10 270 м  +21.1  +18.3  84  +25  +25  комфорт    977.2         
12:53 24.06 Ю  16 км    10/10 300 м  +22.2  +18.9  82  +28  +28  душно  1005.0  977.2         
13:53 24.06 Ю  16 км    10/10 270 м  +22.2  +19.4  84  +28  +28  душно  1005.1  977.6         
14:19 24.06 ЮЗ  16 км    10/10 360 м  +22.8  +19.4  81  +29  +29  очень
душно 
  977.2         
14:53 24.06 Ю  16 км    10/10 360 м  +23.3  +20.0  82  +30  +30  очень
душно 
1004.9  977.2         
15:43 24.06 Ю  16 км    8/8 360 м  +25.0  +20.0  74  +31  +32  очень
душно 
  976.6         
15:53 24.06 Ю  16 км    8/8 480 м  +25.6  +20.0  71  +31  +34  очень
душно 
1004.0  976.3         
16:53 24.06 ЮЗ  16 км    10/10 840 м  +25.0  +19.4  71  +30  +30  душно  1003.7  975.9  +19.4  +27.2     
17:53 24.06 Ю  16 км    8/8 660 м  +26.7  +18.9  62  +32  +34  очень
душно 
1003.4  975.9         
18:00 24.06 Ю  16 км    8/8 870 м  +26.7  +19.4  64  +32  +35  очень
душно 
  975.9         
18:53 24.06 ЮЗ  16 км  слабый дождь  8/8 870 м  +25.6  +18.9  66  +31  +32  очень
душно 
1003.5  975.9         
19:53 24.06 Ю  16 км    8/2 1650 м
[средняя] 
+25.6  +18.3  64  +30  +33  душно  1002.6  974.9         
20:53 24.06 Ю  5
{9} 
16 км    2/2 870 м  +25.6  +17.8  62  +30  +33  душно  1002.2  974.6         
21:53 24.06 ЮЗ  4
{8} 
16 км    10/2 1470 м
[средняя] 
+25.0  +18.3  66  +29  +30  душно  1001.7  974.0         
22:26 24.06 ЮЗ  3 км  сильный дождь, дымка  10/10 360 м  +21.7  +19.4  87  +27  +27  душно    974.9         
22:36 24.06 З  5 км  слабый дождь  10/10 300 м  +21.1  +18.3  84  +25  +25  комфорт    974.9         
22:53 24.06 ЮЗ  16 км    10/8 1230 м
[средняя] 
+21.1  +18.9  87  +25  +26  комфорт  1002.9  975.3  +21.1  +26.7  3.0   
23:53 24.06 ЮЗ  16 км    10/0 2700 м
[средняя] 
+21.1  +18.9  87  +25  +26  комфорт  1003.5  975.9         
00:43 25.06 Ю  16 км    8/8 660 м
[средняя] 
+21.1  +18.9  87  +25  +25  комфорт    975.9         
00:53 25.06 ЮЗ  16 км    5/5 810 м  +21.1  +18.9  87  +25  +25  комфорт  1003.5  975.9         
01:53 25.06 Ю  16 км    ясно  +20.6  +18.3  87  +25  +25  комфорт  1003.6  975.9         
02:53 25.06 ЮЗ  16 км    2/2 810 м  +20.0  +17.8  87  +23  +23  комфорт  1003.6  975.9         
03:53 25.06 ЮЗ  16 км    ясно  +20.0  +17.2  84  +23  +23  комфорт  1003.5  975.9         
04:53 25.06 ЮЗ  16 км    ясно  +18.9  +15.0  78  +20  +20    1004.2  976.6  +18.9  +21.1     
05:53 25.06 ЮЗ  16 км    2/2 630 м  +18.3  +14.4  78  +19  +19    1004.9  977.2         
06:53 25.06 ЮЗ  16 км    ясно  +17.2  +14.4  84  +17  +17    1005.4  977.6         
07:53 25.06 ЮЗ  16 км    ясно  +17.2  +13.9  81  +17  +17    1005.6  977.9         
08:53 25.06 З  5
{9} 
16 км    ясно  +17.2  +14.4  84  +16  +16    1006.4  978.6         
09:45 25.06 З  16 км    8/8 540 м  +17.8  +14.4  80  +17  +17      979.5         
09:53 25.06 ЮЗ  16 км    8/8 510 м  +17.8  +14.4  80  +18  +18    1007.2  979.5         
10:53 25.06 З  16 км    10/10 480 м  +18.3  +14.4  78  +18  +18    1008.2  980.2  +17.2  +18.9     
11:53 25.06 З  16 км    10/10 660 м  +19.4  +14.4  73  +20  +20    1009.1  981.2         
12:53 25.06 З  7
{10} 
16 км    8/8 630 м  +20.0  +14.4  70  +22  +22  комфорт  1009.9  981.9         
13:53 25.06 З  16 км    5/5 810 м  +22.2  +14.4  61  +25  +26  комфорт  1010.1  982.2         
14:53 25.06 З  6
{10} 
16 км    2/2 1110 м  +24.4  +13.9  52  +27  +30  жарко  1010.8  982.8         
15:53 25.06 З  9
{11} 
16 км    ясно  +25.6  +13.3  46  +28  +28  жарко  1011.4  983.5         
16:53 25.06 З  6
{10} 
16 км    ясно  +26.7  +12.8  42  +28  +34  жарко  1011.6  983.8  +18.3  +26.7     
17:53 25.06 З  7
{10} 
16 км    ясно  +27.2  +12.8  41  +29  +33  жарко  1011.4  983.5         
18:53 25.06 З  7
{10} 
16 км    ясно  +28.3  +12.8  38  +30  +33  жарко  1011.0  983.2         
19:53 25.06 нст  16 км    ясно  +28.9  +13.3  38  +30  +41  жарко  1010.5  982.8         

 

Местоположение метеостанции Bishop International Airport: широта 42.9667 долгота -83.7494 высота над уровнем моря 238 м.

В архиве по умолчанию представлена погода в Флинте за последние 1-2 суток. Обновление информации о фактической погоде в базе происходит ежечасно! Архивные данные за месяц целиком и за предыдущие месяцы Вы можете получить, выбрав интересующий диапазон дат из раскрывающегося списка и нажав кнопку "Ввод!".

Внимание! Архив погоды МЕТАР в базе сайта хранится не более 60 дней. Нет смысла пытаться выбрать более раннюю дату.

Внимание! Время в таблицах - всемирное. Для получения местного времени необходимо прибавить поправку, которая в Флинте равна -5 ч.

Ветер - указаны скорость ветра в м/с и направление, откуда дует ветер: С - северный, СВ - северо-восточный, В - восточный, ЮВ - юго-восточный, Ю - южный, ЮЗ - юго-западный, З - западный, СЗ - северо-западный.
Видимость - горизонтальная дальность видимости в метрах или километрах. При видимости от 1 до 10 км при отсутствии осадков обычно наблюдается дымка, при ухудшении видимости до 1 км и менее - туман. В сухую погоду видимость может ухудшаться дымом, пылью или мглою.
Атмосферные явления - указаны явления, наблюдавшиеся в указанный момент времени.
Облачность - указаны через наклонную черту верхняя и нижняя облачность в баллах и высота нижней границы облаков в метрах. Внимание: облачность, как и прочие метеорологические величины в США измеряются автоматическими метеостанциями. Указанные значения в баллах носят условный характер и показывают процент времени, в течение которого, в среднем, лазерный луч высотомера отражался от облаков обратно.
T - Температура воздуха - температура, измеренная на высоте 2 м над землей.
Td - Температура точки росы - температура, при понижении до которой содержащийся в воздухе водяной пар достигнет насыщения.
f - Относительная влажность воздуха - влажноcть воздуха, измеренная на высоте 2 м над землей.
Te - Эффективная температура - температура, которую ощущает одетый по сезону человек в тени. Характеристика душности погоды. При расчете учитывается влияние влажности воздуха и скорости ветра на теплоощущения человека.
Tes - Эффективная температура на солнце - температура, которую ощущает человек, с поправкой на солнечный нагрев. Характеристика знойности погоды. Зависит от высоты солнца над горизонтом, облачности и скорости ветра. Ночью, в пасмурную погоду, а также при ветре 12 м/с и более поправка равна нулю.
P - Атмосферное давление - приведенное к уровню моря атмосферное давление.
Po - Атмосферное давление - измеренное на уровне метеостанции атмосферное давление.
Tmin - Минимальная температура - минимум температуры воздуха на высоте 2 м над землей.
Tmax - Максимальная температура - максимум температуры воздуха на высоте 2 м над землей.
R - Количество осадков - Количество выпавших осадков за 3 или 6 часов, мм.
SD - Снежный покров - Высота снежного покрова, см.